{"data":{"norad_id":59603,"epoch":"2026-05-24T22:57:23.765184Z","epoch_age_seconds":79038,"freshness":"FRESH","line1":"1 59603U 24080C   26144.95652506  .00004440  00000+0  17071-3 0  9992","line2":"2 59603  43.0030 330.9134 0001521 263.9982  96.0697 15.27596668116152","mean_motion":15.27596668,"eccentricity":0.0001521,"inclination_deg":43.003,"raan_deg":330.9134,"arg_perigee_deg":263.9982,"mean_anomaly_deg":96.0697,"bstar":0.00017071,"rev_number":11615,"period_min":94.26572014492,"perigee_km":481.95560769122,"apogee_km":484.04276531916,"semimajor_km":6861.1361865052,"source":"CELESTRAK","updated_at":"2026-05-25T13:38:19.007771Z"}}